Time,TemperatureF,DewpointF,PressureIn,WindDirection,WindDirectionDegrees,WindSpeedMPH,WindSpeedGustMPH,Humidity,HourlyPrecipIn,Conditions,Clouds,dailyrainin,SoftwareType,DateUTC
2013-01-23 00:00:00,10.2,-0.9,30.24,West,269,3.0,7.8,60,0.00,,CLR,0.00,VWS V14.01,2013-01-23 05:00:00,
2013-01-23 00:03:00,10.3,-0.9,30.24,West,274,2.5,9.2,60,0.00,,CLR,0.00,VWS V14.01,2013-01-23 05:03:00,
2013-01-23 00:10:00,10.3,-0.9,30.24,WSW,250,2.0,9.2,60,0.00,,CLR,0.00,VWS V14.01,2013-01-23 05:10:00,
2013-01-23 00:15:00,10.2,-0.8,30.24,West,264,2.3,2.3,60,0.00,,CLR,0.00,VWS V14.01,2013-01-23 05:15:00,
2013-01-23 00:20:00,10.1,-0.8,30.24,West,278,0.0,5.2,60,0.00,,CLR,0.00,VWS V14.01,2013-01-23 05:20:00,
2013-01-23 00:25:00,10.2,-0.5,30.24,SW,231,0.0,5.2,61,0.00,,CLR,0.00,VWS V14.01,2013-01-23 05:25:00,
2013-01-23 00:30:00,10.1,-0.4,30.24,SW,231,0.0,0.0,62,0.00,,CLR,0.00,VWS V14.01,2013-01-23 05:30:00,
2013-01-23 00:35:00,9.8,-0.8,30.24,WSW,239,3.0,6.5,61,0.00,,CLR,0.00,VWS V14.01,2013-01-23 05:35:00,
2013-01-23 00:40:00,9.9,-0.5,30.24,West,277,1.6,6.5,62,0.00,,CLR,0.00,VWS V14.01,2013-01-23 05:40:00,
2013-01-23 00:45:00,10.1,-0.4,30.24,WSW,238,0.0,0.0,62,0.00,,CLR,0.00,VWS V14.01,2013-01-23 05:45:00,
2013-01-23 00:50:00,10.1,-0.7,30.24,West,266,4.5,8.6,61,0.00,,CLR,0.00,VWS V14.01,2013-01-23 05:50:00,
2013-01-23 00:55:00,9.9,-0.5,30.24,WSW,240,3.9,8.6,62,0.00,,CLR,0.00,VWS V14.01,2013-01-23 05:55:00,
2013-01-23 01:00:00,10.0,-0.3,30.24,West,276,0.0,0.0,62,0.00,,CLR,0.00,VWS V14.01,2013-01-23 06:00:00,
2013-01-23 01:05:00,9.9,0.1,30.24,West,276,0.0,0.0,64,0.00,,CLR,0.00,VWS V14.01,2013-01-23 06:05:00,
2013-01-23 01:10:00,9.9,0.1,30.24,SSW,208,0.0,4.3,64,0.00,,CLR,0.00,VWS V14.01,2013-01-23 06:10:00,
2013-01-23 01:15:00,9.8,0.4,30.24,SSW,208,0.0,0.0,65,0.00,,CLR,0.00,VWS V14.01,2013-01-23 06:15:00,
2013-01-23 01:20:00,9.6,0.5,30.24,SSW,208,0.0,0.0,66,0.00,,CLR,0.00,VWS V14.01,2013-01-23 06:20:00,
2013-01-23 01:25:00,9.4,0.4,30.24,WSW,257,0.0,4.7,66,0.00,,CLR,0.00,VWS V14.01,2013-01-23 06:25:00,
2013-01-23 01:30:00,9.6,0.7,30.24,WSW,257,0.0,0.0,66,0.00,,CLR,0.00,VWS V14.01,2013-01-23 06:30:00,
2013-01-23 01:35:00,9.4,0.5,30.24,WSW,257,0.0,0.0,66,0.00,,CLR,0.00,VWS V14.01,2013-01-23 06:35:00,
2013-01-23 01:40:00,9.4,0.5,30.24,WSW,257,0.0,0.0,66,0.00,,CLR,0.00,VWS V14.01,2013-01-23 06:40:00,
2013-01-23 01:45:00,9.4,0.8,30.25,WSW,257,0.0,0.0,67,0.00,,CLR,0.00,VWS V14.01,2013-01-23 06:45:00,
2013-01-23 01:50:00,9.5,0.8,30.25,WSW,257,0.0,0.0,67,0.00,,CLR,0.00,VWS V14.01,2013-01-23 06:50:00,
2013-01-23 01:55:00,9.6,0.8,30.25,WSW,257,0.0,0.0,67,0.00,,CLR,0.00,VWS V14.01,2013-01-23 06:55:00,
2013-01-23 02:00:00,9.3,0.6,30.25,WSW,257,0.0,0.0,67,0.00,,CLR,0.00,VWS V14.01,2013-01-23 07:00:00,
2013-01-23 02:05:00,9.3,0.6,30.26,WSW,257,0.0,0.0,67,0.00,,CLR,0.00,VWS V14.01,2013-01-23 07:05:00,
2013-01-23 02:10:00,9.3,0.6,30.26,WSW,257,0.0,0.0,67,0.00,,CLR,0.00,VWS V14.01,2013-01-23 07:10:00,
2013-01-23 02:15:00,9.4,0.5,30.26,West,269,1.3,3.6,67,0.00,,CLR,0.00,VWS V14.01,2013-01-23 07:15:00,
2013-01-23 02:20:00,9.6,0.5,30.26,West,269,0.0,3.6,66,0.00,,CLR,0.00,VWS V14.01,2013-01-23 07:20:00,
2013-01-23 02:25:00,9.4,0.4,30.26,West,263,0.0,3.7,66,0.00,,CLR,0.00,VWS V14.01,2013-01-23 07:25:00,
2013-01-23 02:30:00,9.4,0.5,30.26,SW,231,0.0,0.0,66,0.00,,CLR,0.00,VWS V14.01,2013-01-23 07:30:00,
2013-01-23 02:35:00,9.7,0.7,30.26,SW,222,0.0,6.0,66,0.00,,CLR,0.00,VWS V14.01,2013-01-23 07:35:00,
2013-01-23 02:40:00,9.7,0.9,30.26,SW,222,0.0,6.0,67,0.00,,CLR,0.00,VWS V14.01,2013-01-23 07:40:00,
2013-01-23 02:45:00,9.3,0.9,30.26,SW,222,0.0,0.0,68,0.00,,CLR,0.00,VWS V14.01,2013-01-23 07:45:00,
2013-01-23 02:50:00,9.4,1.0,30.26,SW,222,0.0,0.0,68,0.00,,CLR,0.00,VWS V14.01,2013-01-23 07:50:00,
2013-01-23 02:55:00,9.1,0.8,30.26,SW,222,0.0,0.0,68,0.00,,CLR,0.00,VWS V14.01,2013-01-23 07:55:00,
2013-01-23 03:00:00,8.9,0.6,30.26,SW,222,0.0,0.0,68,0.00,,CLR,0.00,VWS V14.01,2013-01-23 08:00:00,
2013-01-23 03:05:00,9.1,0.9,30.26,SW,222,0.0,0.0,68,0.00,,CLR,0.00,VWS V14.01,2013-01-23 08:05:00,
2013-01-23 03:10:00,8.9,0.8,30.26,SW,222,0.0,0.0,69,0.00,,CLR,0.00,VWS V14.01,2013-01-23 08:10:00,
2013-01-23 03:15:00,9.2,0.8,30.26,WSW,252,1.7,5.0,68,0.00,,CLR,0.00,VWS V14.01,2013-01-23 08:15:00,
2013-01-23 03:20:00,9.4,0.9,30.26,West,260,0.0,5.6,68,0.00,,CLR,0.00,VWS V14.01,2013-01-23 08:20:00,
2013-01-23 03:25:00,9.1,0.8,30.26,WSW,246,0.0,5.6,68,0.00,,CLR,0.00,VWS V14.01,2013-01-23 08:25:00,
2013-01-23 03:30:00,9.1,0.8,30.26,WSW,246,0.0,0.0,68,0.00,,CLR,0.00,VWS V14.01,2013-01-23 08:30:00,
2013-01-23 03:35:00,9.2,1.2,30.25,WSW,246,0.0,0.0,69,0.00,,CLR,0.00,VWS V14.01,2013-01-23 08:35:00,
2013-01-23 03:40:00,9.1,1.0,30.25,SSW,207,0.0,2.6,69,0.00,,CLR,0.00,VWS V14.01,2013-01-23 08:40:00,
2013-01-23 03:45:00,9.2,1.0,30.25,SSW,207,0.0,0.0,69,0.00,,CLR,0.00,VWS V14.01,2013-01-23 08:45:00,
2013-01-23 03:50:00,9.1,0.9,30.25,SSW,207,0.0,0.0,68,0.00,,CLR,0.00,VWS V14.01,2013-01-23 08:50:00,
2013-01-23 03:55:00,9.5,1.2,30.25,West,260,0.0,5.0,68,0.00,,CLR,0.00,VWS V14.01,2013-01-23 08:55:00,
2013-01-23 04:00:00,9.2,1.0,30.25,WSW,240,0.0,0.0,69,0.00,,CLR,0.00,VWS V14.01,2013-01-23 09:00:00,
2013-01-23 04:05:00,8.9,0.8,30.26,West,269,0.0,2.9,69,0.00,,CLR,0.00,VWS V14.01,2013-01-23 09:05:00,
2013-01-23 04:10:00,8.9,1.0,30.25,West,269,0.0,2.9,70,0.00,,CLR,0.00,VWS V14.01,2013-01-23 09:10:00,
2013-01-23 04:15:00,8.8,0.8,30.26,West,269,0.0,0.0,69,0.00,,CLR,0.00,VWS V14.01,2013-01-23 09:15:00,
2013-01-23 04:20:00,9.0,1.0,30.26,West,269,0.0,0.0,69,0.00,,CLR,0.00,VWS V14.01,2013-01-23 09:20:00,
2013-01-23 04:25:00,9.4,1.4,30.26,West,269,0.0,0.0,69,0.00,,CLR,0.00,VWS V14.01,2013-01-23 09:25:00,
2013-01-23 04:30:00,8.9,1.1,30.26,West,269,0.0,0.0,70,0.00,,CLR,0.00,VWS V14.01,2013-01-23 09:30:00,
2013-01-23 04:35:00,8.9,1.0,30.26,West,269,0.0,0.0,70,0.00,,CLR,0.00,VWS V14.01,2013-01-23 09:35:00,
2013-01-23 04:40:00,8.8,1.2,30.26,West,269,0.0,0.0,70,0.00,,CLR,0.00,VWS V14.01,2013-01-23 09:40:00,
2013-01-23 04:45:00,8.8,1.1,30.26,SW,235,3.4,3.8,70,0.00,,CLR,0.00,VWS V14.01,2013-01-23 09:45:00,
2013-01-23 04:50:00,8.7,1.1,30.25,SW,231,0.0,3.8,71,0.00,,CLR,0.00,VWS V14.01,2013-01-23 09:50:00,
2013-01-23 04:55:00,8.6,1.1,30.25,WSW,242,3.0,3.8,71,0.00,,CLR,0.00,VWS V14.01,2013-01-23 09:55:00,
2013-01-23 05:00:00,8.5,1.2,30.25,SW,224,0.0,0.0,72,0.00,,CLR,0.00,VWS V14.01,2013-01-23 10:00:00,
2013-01-23 05:05:00,8.6,1.2,30.26,WSW,256,0.0,3.3,71,0.00,,CLR,0.00,VWS V14.01,2013-01-23 10:05:00,
2013-01-23 05:10:00,8.9,1.5,30.26,WSW,256,0.0,3.3,71,0.00,,CLR,0.00,VWS V14.01,2013-01-23 10:10:00,
2013-01-23 05:15:00,8.6,1.2,30.26,WSW,256,0.0,0.0,71,0.00,,CLR,0.00,VWS V14.01,2013-01-23 10:15:00,
2013-01-23 05:20:00,8.5,1.2,30.26,WSW,256,0.0,0.0,71,0.00,,CLR,0.00,VWS V14.01,2013-01-23 10:20:00,
2013-01-23 05:25:00,8.7,1.4,30.26,WSW,256,0.0,0.0,71,0.00,,CLR,0.00,VWS V14.01,2013-01-23 10:25:00,
2013-01-23 05:30:00,8.7,1.5,30.26,WSW,256,0.0,0.0,72,0.00,,CLR,0.00,VWS V14.01,2013-01-23 10:30:00,
2013-01-23 05:35:00,8.5,1.2,30.26,SSW,211,0.0,3.5,72,0.00,,CLR,0.00,VWS V14.01,2013-01-23 10:35:00,
2013-01-23 05:40:00,8.4,1.2,30.26,SSW,211,0.0,3.5,72,0.00,,CLR,0.00,VWS V14.01,2013-01-23 10:40:00,
2013-01-23 05:45:00,8.4,1.2,30.26,SSW,211,0.0,0.0,72,0.00,,CLR,0.00,VWS V14.01,2013-01-23 10:45:00,
2013-01-23 05:50:00,8.4,1.3,30.26,SSW,211,0.0,0.0,72,0.00,,CLR,0.00,VWS V14.01,2013-01-23 10:50:00,
2013-01-23 05:55:00,8.4,1.4,30.26,SSW,198,0.8,1.4,72,0.00,,CLR,0.00,VWS V14.01,2013-01-23 10:55:00,
2013-01-23 06:00:00,8.2,1.3,30.25,WSW,245,0.0,0.0,73,0.00,,CLR,0.00,VWS V14.01,2013-01-23 11:00:00,
2013-01-23 06:05:00,8.4,1.5,30.25,WSW,245,0.0,0.0,73,0.00,,CLR,0.00,VWS V14.01,2013-01-23 11:05:00,
2013-01-23 06:10:00,8.2,1.4,30.25,WSW,245,0.0,0.0,73,0.00,,CLR,0.00,VWS V14.01,2013-01-23 11:10:00,
2013-01-23 06:16:00,8.1,1.2,30.25,WSW,243,5.7,5.7,73,0.00,,CLR,0.00,VWS V14.01,2013-01-23 11:16:00,
2013-01-23 06:21:00,8.2,1.1,30.26,SSW,201,0.0,5.7,72,0.00,,CLR,0.00,VWS V14.01,2013-01-23 11:21:00,
2013-01-23 06:26:00,8.4,1.2,30.26,WSW,252,0.0,5.7,72,0.00,,CLR,0.00,VWS V14.01,2013-01-23 11:26:00,
2013-01-23 06:31:00,8.1,1.1,30.26,WSW,252,0.0,0.0,72,0.00,,CLR,0.00,VWS V14.01,2013-01-23 11:31:00,
2013-01-23 06:36:00,8.0,1.0,30.26,WSW,252,0.0,0.0,72,0.00,,CLR,0.00,VWS V14.01,2013-01-23 11:36:00,
2013-01-23 06:41:00,7.9,1.0,30.26,West,262,0.7,5.7,73,0.00,,CLR,0.00,VWS V14.01,2013-01-23 11:41:00,
2013-01-23 06:46:00,8.3,1.6,30.26,West,262,0.0,0.0,73,0.00,,CLR,0.00,VWS V14.01,2013-01-23 11:46:00,
2013-01-23 06:51:00,8.0,1.3,30.26,West,262,0.0,0.0,73,0.00,,CLR,0.00,VWS V14.01,2013-01-23 11:51:00,
2013-01-23 06:56:00,7.8,1.0,30.26,SW,217,0.0,3.4,73,0.00,,CLR,0.00,VWS V14.01,2013-01-23 11:56:00,
2013-01-23 07:01:00,8.0,1.2,30.26,SW,217,0.0,0.0,73,0.00,,CLR,0.00,VWS V14.01,2013-01-23 12:01:00,
2013-01-23 07:06:00,7.9,1.3,30.26,SW,217,0.0,0.0,74,0.00,,CLR,0.00,VWS V14.01,2013-01-23 12:06:00,
2013-01-23 07:11:00,8.2,1.6,30.26,SW,217,0.0,0.0,74,0.00,,CLR,0.00,VWS V14.01,2013-01-23 12:11:00,
2013-01-23 07:16:00,8.0,1.5,30.26,SW,217,0.0,0.0,74,0.00,,CLR,0.00,VWS V14.01,2013-01-23 12:16:00,
2013-01-23 07:21:00,7.7,1.2,30.26,SW,217,0.0,0.0,74,0.00,,CLR,0.00,VWS V14.01,2013-01-23 12:21:00,
2013-01-23 07:26:00,7.8,1.3,30.26,WSW,257,3.0,5.8,74,0.00,,CLR,0.00,VWS V14.01,2013-01-23 12:26:00,
2013-01-23 07:31:00,8.0,1.3,30.26,SW,226,0.0,0.0,74,0.00,,CLR,0.00,VWS V14.01,2013-01-23 12:31:00,
2013-01-23 07:36:00,8.0,1.4,30.26,SW,226,0.0,0.0,74,0.00,,CLR,0.00,VWS V14.01,2013-01-23 12:36:00,
2013-01-23 07:41:00,7.8,1.3,30.26,SW,226,0.0,0.0,74,0.00,,CLR,0.00,VWS V14.01,2013-01-23 12:41:00,
2013-01-23 07:46:00,8.0,1.6,30.26,SW,226,0.0,0.0,74,0.00,,CLR,0.00,VWS V14.01,2013-01-23 12:46:00,
2013-01-23 07:51:00,7.9,1.4,30.26,SW,226,0.0,0.0,74,0.00,,CLR,0.00,VWS V14.01,2013-01-23 12:51:00,
2013-01-23 07:56:00,8.1,1.7,30.26,SW,226,0.0,0.0,75,0.00,,CLR,0.00,VWS V14.01,2013-01-23 12:56:00,
2013-01-23 08:01:00,8.3,1.7,30.26,WSW,238,0.0,0.0,74,0.00,,CLR,0.00,VWS V14.01,2013-01-23 13:01:00,
2013-01-23 08:06:00,8.6,1.9,30.26,WSW,238,0.0,0.0,74,0.00,,CLR,0.00,VWS V14.01,2013-01-23 13:06:00,
2013-01-23 08:11:00,8.9,2.0,30.26,WNW,300,0.0,4.1,73,0.00,,CLR,0.00,VWS V14.01,2013-01-23 13:11:00,
2013-01-23 08:16:00,9.1,2.6,30.26,WNW,300,0.0,0.0,74,0.00,,CLR,0.00,VWS V14.01,2013-01-23 13:16:00,
2013-01-23 08:21:00,9.4,2.5,30.27,WSW,238,0.0,9.9,73,0.00,,CLR,0.00,VWS V14.01,2013-01-23 13:21:00,
2013-01-23 08:26:00,9.4,2.5,30.26,WNW,283,0.0,9.9,73,0.00,,CLR,0.00,VWS V14.01,2013-01-23 13:26:00,
2013-01-23 08:31:00,9.7,2.5,30.27,WSW,238,0.0,4.5,72,0.00,,CLR,0.00,VWS V14.01,2013-01-23 13:31:00,
2013-01-23 08:36:00,10.2,3.0,30.27,South,191,1.0,4.5,72,0.00,,CLR,0.00,VWS V14.01,2013-01-23 13:36:00,
2013-01-23 08:41:00,10.4,3.2,30.27,West,264,0.0,4.5,72,0.00,,CLR,0.00,VWS V14.01,2013-01-23 13:41:00,
2013-01-23 08:46:00,10.3,2.9,30.27,WNW,291,5.9,6.7,71,0.00,,CLR,0.00,VWS V14.01,2013-01-23 13:46:00,
2013-01-23 08:51:00,10.4,2.8,30.27,SW,231,2.3,15.7,71,0.00,,CLR,0.00,VWS V14.01,2013-01-23 13:51:00,
2013-01-23 08:56:00,10.4,2.5,30.28,SSE,150,0.9,15.7,70,0.00,,CLR,0.00,VWS V14.01,2013-01-23 13:56:00,
2013-01-23 09:01:00,10.4,2.6,30.27,SW,236,2.6,5.2,70,0.00,,CLR,0.00,VWS V14.01,2013-01-23 14:01:00,
2013-01-23 09:06:00,10.9,2.8,30.28,SW,219,3.2,7.1,69,0.00,,CLR,0.00,VWS V14.01,2013-01-23 14:06:00,
2013-01-23 09:11:00,11.2,3.2,30.28,WSW,245,0.0,7.3,70,0.00,,CLR,0.00,VWS V14.01,2013-01-23 14:11:00,
2013-01-23 09:16:00,11.4,3.1,30.28,WSW,242,3.3,6.8,69,0.00,,CLR,0.00,VWS V14.01,2013-01-23 14:16:00,
2013-01-23 09:21:00,11.6,3.3,30.28,West,263,0.0,6.8,68,0.00,,CLR,0.00,VWS V14.01,2013-01-23 14:21:00,
2013-01-23 09:26:00,11.9,3.7,30.28,SW,236,5.3,8.1,69,0.00,,CLR,0.00,VWS V14.01,2013-01-23 14:26:00,
2013-01-23 09:31:00,11.5,2.8,30.28,West,276,5.7,6.7,67,0.00,,CLR,0.00,VWS V14.01,2013-01-23 14:31:00,
2013-01-23 09:36:00,11.9,3.3,30.28,West,266,2.1,7.0,68,0.00,,CLR,0.00,VWS V14.01,2013-01-23 14:36:00,
2013-01-23 09:41:00,12.4,3.8,30.28,WSW,246,0.0,7.0,68,0.00,,CLR,0.00,VWS V14.01,2013-01-23 14:41:00,
2013-01-23 09:46:00,13.0,4.1,30.28,SW,217,3.5,7.0,67,0.00,,CLR,0.00,VWS V14.01,2013-01-23 14:46:00,
2013-01-23 09:51:00,12.7,3.4,30.28,West,267,0.0,7.0,66,0.00,,CLR,0.00,VWS V14.01,2013-01-23 14:51:00,
2013-01-23 09:56:00,13.0,3.6,30.29,WSW,245,4.6,8.5,66,0.00,,CLR,0.00,VWS V14.01,2013-01-23 14:56:00,
2013-01-23 10:01:00,13.2,3.7,30.28,SW,228,5.8,8.0,65,0.00,,CLR,0.00,VWS V14.01,2013-01-23 15:01:00,
2013-01-23 10:06:00,13.3,3.8,30.28,SW,235,4.9,8.0,65,0.00,,CLR,0.00,VWS V14.01,2013-01-23 15:06:00,
2013-01-23 10:11:00,13.0,3.3,30.28,SW,236,3.8,8.6,64,0.00,,CLR,0.00,VWS V14.01,2013-01-23 15:11:00,
2013-01-23 10:16:00,13.0,3.5,30.28,SSE,160,0.0,3.8,65,0.00,,CLR,0.00,VWS V14.01,2013-01-23 15:16:00,
2013-01-23 10:21:00,13.2,3.2,30.28,SSW,211,8.2,9.1,64,0.00,,CLR,0.00,VWS V14.01,2013-01-23 15:21:00,
2013-01-23 10:26:00,13.8,3.9,30.28,SW,231,4.8,9.1,64,0.00,,CLR,0.00,VWS V14.01,2013-01-23 15:26:00,
2013-01-23 10:31:00,14.0,3.7,30.28,SW,235,2.2,9.0,63,0.00,,CLR,0.00,VWS V14.01,2013-01-23 15:31:00,
2013-01-23 10:36:00,13.8,3.3,30.28,WSW,249,7.9,10.5,62,0.00,,CLR,0.00,VWS V14.01,2013-01-23 15:36:00,
2013-01-23 10:41:00,14.2,3.9,30.28,West,260,4.2,10.5,63,0.00,,CLR,0.00,VWS V14.01,2013-01-23 15:41:00,
2013-01-23 10:46:00,14.2,3.5,30.28,West,276,0.0,7.3,62,0.00,,CLR,0.00,VWS V14.01,2013-01-23 15:46:00,
2013-01-23 10:51:00,14.6,3.9,30.28,WNW,297,0.0,7.3,62,0.00,,CLR,0.00,VWS V14.01,2013-01-23 15:51:00,
2013-01-23 10:56:00,14.6,3.7,30.28,SW,226,1.7,7.3,61,0.00,,CLR,0.00,VWS V14.01,2013-01-23 15:56:00,
2013-01-23 11:01:00,14.8,3.8,30.27,West,264,2.2,8.1,61,0.00,,BKN041,0.00,VWS V14.01,2013-01-23 16:01:00,
2013-01-23 11:06:00,14.9,3.5,30.27,WSW,248,5.0,8.1,60,0.00,,BKN041,0.00,VWS V14.01,2013-01-23 16:06:00,
2013-01-23 11:11:00,14.5,3.2,30.26,SW,221,4.5,11.1,60,0.00,,BKN041,0.00,VWS V14.01,2013-01-23 16:11:00,
2013-01-23 11:16:00,15.0,3.1,30.26,SW,229,4.3,9.1,58,0.00,,BKN041,0.00,VWS V14.01,2013-01-23 16:16:00,
2013-01-23 11:21:00,14.9,2.8,30.26,West,267,5.4,9.1,58,0.00,,BKN041,0.00,VWS V14.01,2013-01-23 16:21:00,
2013-01-23 11:26:00,14.8,3.0,30.26,WSW,256,4.3,9.1,59,0.00,,BKN041,0.00,VWS V14.01,2013-01-23 16:26:00,
2013-01-23 11:31:00,14.6,2.9,30.25,SSW,207,4.4,6.4,59,0.00,,BKN041,0.00,VWS V14.01,2013-01-23 16:31:00,
2013-01-23 11:36:00,14.5,2.8,30.25,West,259,4.2,6.4,59,0.00,,BKN041,0.00,VWS V14.01,2013-01-23 16:36:00,
2013-01-23 11:41:00,14.2,2.5,30.25,WNW,300,0.0,8.4,59,0.00,,BKN041,0.00,VWS V14.01,2013-01-23 16:41:00,
2013-01-23 11:46:00,14.3,2.7,30.24,West,274,4.5,5.8,59,0.00,,BKN041,0.00,VWS V14.01,2013-01-23 16:46:00,
2013-01-23 11:51:00,14.7,2.9,30.24,WSW,238,4.0,7.4,59,0.00,,BKN041,0.00,VWS V14.01,2013-01-23 16:51:00,
2013-01-23 11:57:00,14.8,2.6,30.24,West,260,5.1,7.4,58,0.00,,BKN041,0.00,VWS V14.01,2013-01-23 16:57:00,
2013-01-23 12:02:00,14.5,2.3,30.24,West,267,6.3,9.1,58,0.00,,OVC049,0.00,VWS V14.01,2013-01-23 17:02:00,
2013-01-23 12:07:00,14.5,2.2,30.23,WSW,249,2.1,9.1,58,0.00,,OVC049,0.00,VWS V14.01,2013-01-23 17:07:00,
2013-01-23 12:12:00,14.6,2.8,30.23,SSW,212,5.0,9.1,59,0.00,,OVC049,0.00,VWS V14.01,2013-01-23 17:12:00,
2013-01-23 12:17:00,15.0,3.7,30.23,West,269,3.3,6.1,60,0.00,,OVC049,0.00,VWS V14.01,2013-01-23 17:17:00,
2013-01-23 12:22:00,14.8,4.2,30.23,WSW,256,3.2,10.9,62,0.00,,OVC049,0.00,VWS V14.01,2013-01-23 17:22:00,
2013-01-23 12:27:00,15.1,4.4,30.23,SW,218,2.7,10.9,62,0.00,,OVC049,0.00,VWS V14.01,2013-01-23 17:27:00,
2013-01-23 12:32:00,15.2,5.0,30.22,NW,316,4.3,4.3,63,0.00,,OVC049,0.00,VWS V14.01,2013-01-23 17:32:00,
2013-01-23 12:37:00,14.4,3.9,30.22,WSW,240,4.3,8.6,62,0.00,,OVC049,0.00,VWS V14.01,2013-01-23 17:37:00,
2013-01-23 12:42:00,14.5,4.3,30.22,WSW,242,3.7,8.6,63,0.00,,OVC049,0.00,VWS V14.01,2013-01-23 17:42:00,
2013-01-23 12:47:00,14.6,4.8,30.22,SW,215,0.0,5.8,64,0.00,,OVC049,0.00,VWS V14.01,2013-01-23 17:47:00,
2013-01-23 12:52:00,15.0,5.5,30.22,WSW,242,2.4,6.2,65,0.00,,OVC049,0.00,VWS V14.01,2013-01-23 17:52:00,
2013-01-23 12:57:00,15.1,6.4,30.21,WSW,248,1.4,6.5,68,0.00,,OVC049,0.00,VWS V14.01,2013-01-23 17:57:00,
2013-01-23 13:02:00,14.7,6.4,30.21,WSW,248,0.0,0.0,69,0.00,,OVC049,0.00,VWS V14.01,2013-01-23 18:02:00,
2013-01-23 13:07:00,14.7,6.7,30.21,SSE,158,2.5,10.6,70,0.00,,OVC049,0.00,VWS V14.01,2013-01-23 18:07:00,
2013-01-23 13:12:00,14.7,6.7,30.21,West,259,4.5,10.6,70,0.00,,OVC049,0.00,VWS V14.01,2013-01-23 18:12:00,
2013-01-23 13:17:00,14.6,6.1,30.21,West,281,4.5,9.1,68,0.00,,OVC049,0.00,VWS V14.01,2013-01-23 18:17:00,
2013-01-23 13:22:00,14.6,6.1,30.21,WSW,255,2.9,9.1,68,0.00,,OVC049,0.00,VWS V14.01,2013-01-23 18:22:00,
2013-01-23 13:27:00,14.8,7.2,30.21,WSW,256,0.0,9.1,71,0.00,,OVC049,0.00,VWS V14.01,2013-01-23 18:27:00,
2013-01-23 13:32:00,14.8,7.4,30.21,WNW,283,2.9,5.0,72,0.00,,OVC049,0.00,VWS V14.01,2013-01-23 18:32:00,
2013-01-23 13:37:00,15.1,7.2,30.21,WSW,242,2.1,5.0,70,0.00,,OVC049,0.00,VWS V14.01,2013-01-23 18:37:00,
2013-01-23 13:42:00,14.9,8.1,30.20,West,271,3.6,6.3,74,0.00,,OVC049,0.00,VWS V14.01,2013-01-23 18:42:00,
2013-01-23 13:47:00,15.1,8.0,30.20,WNW,300,0.0,4.3,73,0.00,,OVC049,0.00,VWS V14.01,2013-01-23 18:47:00,
2013-01-23 13:52:00,15.7,6.4,30.20,West,264,0.0,7.1,66,0.00,,OVC049,0.00,VWS V14.01,2013-01-23 18:52:00,
2013-01-23 13:57:00,16.7,6.5,30.20,SW,228,0.0,7.1,64,0.00,,OVC049,0.00,VWS V14.01,2013-01-23 18:57:00,
2013-01-23 14:02:00,16.6,5.7,30.20,SSE,165,3.4,8.3,61,0.00,,OVC060,0.00,VWS V14.01,2013-01-23 19:02:00,
2013-01-23 14:07:00,17.1,6.0,30.20,WSW,238,2.4,8.6,61,0.00,,OVC060,0.00,VWS V14.01,2013-01-23 19:07:00,
2013-01-23 14:12:00,16.9,6.2,30.20,WNW,287,5.1,8.6,62,0.00,,OVC060,0.00,VWS V14.01,2013-01-23 19:12:00,
2013-01-23 14:17:00,17.0,6.3,30.20,WSW,255,2.6,8.5,62,0.00,,OVC060,0.00,VWS V14.01,2013-01-23 19:17:00,
2013-01-23 14:22:00,16.1,5.1,30.21,West,273,4.4,8.8,61,0.00,,OVC060,0.00,VWS V14.01,2013-01-23 19:22:00,
2013-01-23 14:27:00,15.7,5.5,30.20,West,263,2.7,8.8,63,0.00,,OVC060,0.00,VWS V14.01,2013-01-23 19:27:00,
2013-01-23 14:32:00,15.2,5.3,30.21,West,262,1.4,5.5,64,0.00,,OVC060,0.00,VWS V14.01,2013-01-23 19:32:00,
2013-01-23 14:37:00,15.2,5.3,30.21,NNW,329,5.8,7.9,64,0.00,,OVC060,0.00,VWS V14.01,2013-01-23 19:37:00,
2013-01-23 14:42:00,15.1,4.9,30.21,NW,312,6.3,10.4,63,0.00,,OVC060,0.00,VWS V14.01,2013-01-23 19:42:00,
2013-01-23 14:47:00,15.3,6.1,30.21,West,270,0.0,5.0,66,0.00,,OVC060,0.00,VWS V14.01,2013-01-23 19:47:00,
2013-01-23 14:52:00,15.3,6.2,30.21,WNW,294,5.3,7.0,67,0.00,,OVC060,0.00,VWS V14.01,2013-01-23 19:52:00,
2013-01-23 14:57:00,15.4,5.8,30.21,WNW,298,2.8,7.1,65,0.00,,OVC060,0.00,VWS V14.01,2013-01-23 19:57:00,
2013-01-23 15:02:00,16.1,5.4,30.20,West,267,4.9,6.5,62,0.00,,BKN060,0.00,VWS V14.01,2013-01-23 20:02:00,
2013-01-23 15:07:00,16.4,4.7,30.21,South,190,0.0,6.5,59,0.00,,BKN060,0.00,VWS V14.01,2013-01-23 20:07:00,
2013-01-23 15:12:00,16.4,3.9,30.21,WSW,253,4.4,9.5,57,0.00,,BKN060,0.00,VWS V14.01,2013-01-23 20:12:00,
2013-01-23 15:17:00,16.2,3.5,30.21,West,278,0.0,0.0,57,0.00,,BKN060,0.00,VWS V14.01,2013-01-23 20:17:00,
2013-01-23 15:22:00,16.0,3.5,30.20,West,262,7.3,9.3,57,0.00,,BKN060,0.00,VWS V14.01,2013-01-23 20:22:00,
2013-01-23 15:27:00,15.6,4.1,30.20,West,266,0.0,9.3,60,0.00,,BKN060,0.00,VWS V14.01,2013-01-23 20:27:00,
2013-01-23 15:32:00,15.7,4.4,30.20,North,8,0.0,6.2,60,0.00,,BKN060,0.00,VWS V14.01,2013-01-23 20:32:00,
2013-01-23 15:37:00,15.5,4.1,30.20,NW,311,0.0,7.9,60,0.00,,BKN060,0.00,VWS V14.01,2013-01-23 20:37:00,
2013-01-23 15:42:00,15.9,4.3,30.20,NW,311,0.0,7.9,60,0.00,,BKN060,0.00,VWS V14.01,2013-01-23 20:42:00,
2013-01-23 15:47:00,16.3,4.2,30.20,West,269,4.5,5.4,58,0.00,,BKN060,0.00,VWS V14.01,2013-01-23 20:47:00,
2013-01-23 15:52:00,16.5,4.3,30.20,NW,307,4.8,5.4,58,0.00,,BKN060,0.00,VWS V14.01,2013-01-23 20:52:00,
2013-01-23 15:57:00,16.7,3.1,30.20,WNW,291,4.1,8.0,54,0.00,,BKN060,0.00,VWS V14.01,2013-01-23 20:57:00,
2013-01-23 16:02:00,16.5,4.2,30.20,WSW,238,0.8,6.3,58,0.00,,FEW065,0.00,VWS V14.01,2013-01-23 21:02:00,
2013-01-23 16:07:00,16.2,4.4,30.20,WNW,288,4.3,8.5,59,0.00,,FEW065,0.00,VWS V14.01,2013-01-23 21:07:00,
2013-01-23 16:12:00,16.5,4.9,30.20,SSW,201,1.7,8.5,60,0.00,,FEW065,0.00,VWS V14.01,2013-01-23 21:12:00,
2013-01-23 16:17:00,16.5,4.9,30.20,West,266,5.3,5.9,60,0.00,,FEW065,0.00,VWS V14.01,2013-01-23 21:17:00,
2013-01-23 16:22:00,16.4,4.3,30.20,West,274,5.0,6.0,58,0.00,,FEW065,0.00,VWS V14.01,2013-01-23 21:22:00,
2013-01-23 16:27:00,16.1,2.6,30.20,WSW,248,2.0,7.0,54,0.00,,FEW065,0.00,VWS V14.01,2013-01-23 21:27:00,
2013-01-23 16:32:00,16.2,3.0,30.20,SW,224,6.3,7.1,55,0.00,,FEW065,0.00,VWS V14.01,2013-01-23 21:32:00,
2013-01-23 16:37:00,16.0,3.2,30.21,West,273,3.2,7.1,56,0.00,,FEW065,0.00,VWS V14.01,2013-01-23 21:37:00,
2013-01-23 16:42:00,15.6,3.2,30.21,West,270,0.6,7.1,57,0.00,,FEW065,0.00,VWS V14.01,2013-01-23 21:42:00,
2013-01-23 16:47:00,15.5,3.5,30.21,WSW,250,0.0,4.5,58,0.00,,FEW065,0.00,VWS V14.01,2013-01-23 21:47:00,
2013-01-23 16:52:00,15.2,3.6,30.21,WSW,257,0.0,4.7,59,0.00,,FEW065,0.00,VWS V14.01,2013-01-23 21:52:00,
2013-01-23 16:57:00,15.1,4.0,30.21,NW,314,2.4,8.8,61,0.00,,FEW065,0.00,VWS V14.01,2013-01-23 21:57:00,
2013-01-23 17:02:00,14.9,4.4,30.21,West,262,0.0,3.5,62,0.00,,CLR,0.00,VWS V14.01,2013-01-23 22:02:00,
2013-01-23 17:07:00,15.1,5.0,30.21,South,190,0.0,4.0,64,0.00,,CLR,0.00,VWS V14.01,2013-01-23 22:07:00,
2013-01-23 17:12:00,14.7,4.8,30.21,South,190,0.0,4.0,64,0.00,,CLR,0.00,VWS V14.01,2013-01-23 22:12:00,
2013-01-23 17:17:00,14.9,5.4,30.21,South,190,0.0,0.0,65,0.00,,CLR,0.00,VWS V14.01,2013-01-23 22:17:00,
2013-01-23 17:22:00,14.8,5.4,30.22,West,263,0.0,4.3,66,0.00,,CLR,0.00,VWS V14.01,2013-01-23 22:22:00,
2013-01-23 17:27:00,14.8,5.6,30.22,West,263,0.0,4.3,66,0.00,,CLR,0.00,VWS V14.01,2013-01-23 22:27:00,
2013-01-23 17:32:00,14.7,5.6,30.22,West,263,0.0,0.0,66,0.00,,CLR,0.00,VWS V14.01,2013-01-23 22:32:00,
2013-01-23 17:37:00,14.6,5.7,30.22,West,263,0.0,0.0,67,0.00,,CLR,0.00,VWS V14.01,2013-01-23 22:37:00,
2013-01-23 17:42:00,14.4,5.5,30.22,West,263,0.0,0.0,67,0.00,,CLR,0.00,VWS V14.01,2013-01-23 22:42:00,
2013-01-23 17:47:00,14.3,5.6,30.22,West,263,0.0,0.0,68,0.00,,CLR,0.00,VWS V14.01,2013-01-23 22:47:00,
2013-01-23 17:52:00,14.0,5.3,30.22,West,263,0.0,0.0,68,0.00,,CLR,0.00,VWS V14.01,2013-01-23 22:52:00,
2013-01-23 17:57:00,14.0,5.6,30.22,West,263,0.0,0.0,68,0.00,,CLR,0.00,VWS V14.01,2013-01-23 22:57:00,
2013-01-23 18:02:00,13.6,5.3,30.22,West,263,0.0,0.0,69,0.00,,CLR,0.00,VWS V14.01,2013-01-23 23:02:00,
2013-01-23 18:07:00,13.3,5.1,30.22,West,263,0.0,0.0,69,0.00,,CLR,0.00,VWS V14.01,2013-01-23 23:07:00,
2013-01-23 18:12:00,13.3,5.2,30.22,West,263,0.0,0.0,70,0.00,,CLR,0.00,VWS V14.01,2013-01-23 23:12:00,
2013-01-23 18:17:00,12.8,5.0,30.22,West,263,0.0,0.0,70,0.00,,CLR,0.00,VWS V14.01,2013-01-23 23:17:00,
2013-01-23 18:22:00,12.9,5.2,30.22,West,263,0.0,0.0,71,0.00,,CLR,0.00,VWS V14.01,2013-01-23 23:22:00,
2013-01-23 18:27:00,12.9,5.3,30.22,West,263,0.0,0.0,71,0.00,,CLR,0.00,VWS V14.01,2013-01-23 23:27:00,
2013-01-23 18:32:00,12.7,5.2,30.22,West,263,0.0,0.0,71,0.00,,CLR,0.00,VWS V14.01,2013-01-23 23:32:00,
2013-01-23 18:37:00,12.7,5.2,30.22,West,263,0.0,0.0,72,0.00,,CLR,0.00,VWS V14.01,2013-01-23 23:37:00,
2013-01-23 18:42:00,12.6,5.3,30.22,West,263,0.0,0.0,72,0.00,,CLR,0.00,VWS V14.01,2013-01-23 23:42:00,
2013-01-23 18:47:00,12.5,5.3,30.22,West,263,0.0,0.0,72,0.00,,CLR,0.00,VWS V14.01,2013-01-23 23:47:00,
2013-01-23 18:52:00,12.0,4.9,30.22,West,263,0.0,0.0,73,0.00,,CLR,0.00,VWS V14.01,2013-01-23 23:52:00,
2013-01-23 18:57:00,12.0,5.1,30.22,West,263,0.0,0.0,73,0.00,,CLR,0.00,VWS V14.01,2013-01-23 23:57:00,
2013-01-23 19:02:00,11.6,4.8,30.22,West,263,0.0,0.0,74,0.00,,CLR,0.00,VWS V14.01,2013-01-24 00:02:00,
2013-01-23 19:07:00,11.5,4.9,30.22,West,263,0.0,0.0,74,0.00,,CLR,0.00,VWS V14.01,2013-01-24 00:07:00,
2013-01-23 19:12:00,11.2,5.2,30.21,West,263,0.0,0.0,76,0.00,,CLR,0.00,VWS V14.01,2013-01-24 00:12:00,
2013-01-23 19:17:00,10.8,5.0,30.21,West,263,0.0,0.0,77,0.00,,CLR,0.00,VWS V14.01,2013-01-24 00:17:00,
2013-01-23 19:22:00,10.7,5.0,30.21,West,263,0.0,0.0,77,0.00,,CLR,0.00,VWS V14.01,2013-01-24 00:22:00,
2013-01-23 19:27:00,10.6,5.0,30.21,West,263,0.0,0.0,78,0.00,,CLR,0.00,VWS V14.01,2013-01-24 00:27:00,
2013-01-23 19:32:00,10.5,5.0,30.21,West,263,0.0,0.0,78,0.00,,CLR,0.00,VWS V14.01,2013-01-24 00:32:00,
2013-01-23 19:37:00,10.5,5.0,30.21,West,263,0.0,0.0,78,0.00,,CLR,0.00,VWS V14.01,2013-01-24 00:37:00,
2013-01-23 19:42:00,10.3,4.9,30.21,West,263,0.0,0.0,78,0.00,,CLR,0.00,VWS V14.01,2013-01-24 00:42:00,
2013-01-23 19:47:00,10.1,4.8,30.21,West,263,0.0,0.0,79,0.00,,CLR,0.00,VWS V14.01,2013-01-24 00:47:00,
2013-01-23 19:52:00,10.0,4.9,30.21,West,263,0.0,0.0,79,0.00,,CLR,0.00,VWS V14.01,2013-01-24 00:52:00,
2013-01-23 19:57:00,10.1,5.2,30.21,West,263,0.0,0.0,80,0.00,,CLR,0.00,VWS V14.01,2013-01-24 00:57:00,
2013-01-23 20:02:00,10.0,5.2,30.21,West,263,0.0,0.0,80,0.00,,CLR,0.00,VWS V14.01,2013-01-24 01:02:00,
2013-01-23 20:07:00,10.0,5.3,30.21,West,263,0.0,0.0,81,0.00,,CLR,0.00,VWS V14.01,2013-01-24 01:07:00,
2013-01-23 20:12:00,10.0,5.4,30.20,West,263,0.0,0.0,81,0.00,,CLR,0.00,VWS V14.01,2013-01-24 01:12:00,
2013-01-23 20:17:00,10.2,5.6,30.20,West,263,0.0,0.0,81,0.00,,CLR,0.00,VWS V14.01,2013-01-24 01:17:00,
2013-01-23 20:22:00,9.9,5.6,30.20,West,263,0.0,0.0,82,0.00,,CLR,0.00,VWS V14.01,2013-01-24 01:22:00,
2013-01-23 20:27:00,9.9,5.7,30.20,West,263,0.0,0.0,83,0.00,,CLR,0.00,VWS V14.01,2013-01-24 01:27:00,
2013-01-23 20:32:00,9.5,5.4,30.20,West,263,0.0,0.0,83,0.00,,CLR,0.00,VWS V14.01,2013-01-24 01:32:00,
2013-01-23 20:37:00,9.7,5.7,30.20,West,263,0.0,0.0,83,0.00,,CLR,0.00,VWS V14.01,2013-01-24 01:37:00,
2013-01-23 20:42:00,9.1,5.2,30.20,West,263,0.0,0.0,84,0.00,,CLR,0.00,VWS V14.01,2013-01-24 01:42:00,
2013-01-23 20:47:00,9.0,5.1,30.20,West,263,0.0,0.0,84,0.00,,CLR,0.00,VWS V14.01,2013-01-24 01:47:00,
2013-01-23 20:52:00,8.9,5.1,30.20,West,263,0.0,0.0,84,0.00,,CLR,0.00,VWS V14.01,2013-01-24 01:52:00,
2013-01-23 20:57:00,8.9,5.1,30.20,West,263,0.0,0.0,84,0.00,,CLR,0.00,VWS V14.01,2013-01-24 01:57:00,
2013-01-23 21:02:00,8.5,4.8,30.20,West,263,0.0,0.0,85,0.00,,CLR,0.00,VWS V14.01,2013-01-24 02:02:00,
2013-01-23 21:07:00,8.1,4.5,30.20,West,263,0.0,0.0,85,0.00,,CLR,0.00,VWS V14.01,2013-01-24 02:07:00,
2013-01-23 21:12:00,8.1,4.7,30.20,West,263,0.0,0.0,86,0.00,,CLR,0.00,VWS V14.01,2013-01-24 02:12:00,
2013-01-23 21:17:00,8.0,4.6,30.20,West,263,0.0,0.0,86,0.00,,CLR,0.00,VWS V14.01,2013-01-24 02:17:00,
2013-01-23 21:22:00,7.9,4.5,30.21,West,263,0.0,0.0,86,0.00,,CLR,0.00,VWS V14.01,2013-01-24 02:22:00,
2013-01-23 21:27:00,7.7,4.3,30.21,West,263,0.0,0.0,86,0.00,,CLR,0.00,VWS V14.01,2013-01-24 02:27:00,
2013-01-23 21:32:00,7.7,4.4,30.21,West,263,0.0,0.0,86,0.00,,CLR,0.00,VWS V14.01,2013-01-24 02:32:00,
2013-01-23 21:37:00,7.5,4.3,30.21,West,263,0.0,0.0,86,0.00,,CLR,0.00,VWS V14.01,2013-01-24 02:37:00,
2013-01-23 21:42:00,7.3,4.2,30.21,West,263,0.0,0.0,87,0.00,,CLR,0.00,VWS V14.01,2013-01-24 02:42:00,
2013-01-23 21:47:00,7.4,4.3,30.20,West,263,0.0,0.0,87,0.00,,CLR,0.00,VWS V14.01,2013-01-24 02:47:00,
2013-01-23 21:52:00,7.3,4.3,30.20,West,263,0.0,0.0,87,0.00,,CLR,0.00,VWS V14.01,2013-01-24 02:52:00,
2013-01-23 21:57:00,7.1,4.3,30.21,West,263,0.0,0.0,88,0.00,,CLR,0.00,VWS V14.01,2013-01-24 02:57:00,
2013-01-23 22:02:00,7.2,4.5,30.21,West,263,0.0,0.0,88,0.00,,CLR,0.00,VWS V14.01,2013-01-24 03:02:00,
2013-01-23 22:07:00,6.9,4.4,30.21,West,263,0.0,0.0,89,0.00,,CLR,0.00,VWS V14.01,2013-01-24 03:07:00,
2013-01-23 22:12:00,7.0,4.6,30.21,West,263,0.0,0.0,89,0.00,,CLR,0.00,VWS V14.01,2013-01-24 03:12:00,
2013-01-23 22:17:00,6.9,4.5,30.21,West,263,0.0,0.0,90,0.00,,CLR,0.00,VWS V14.01,2013-01-24 03:17:00,
2013-01-23 22:22:00,7.1,4.8,30.21,West,263,0.0,0.0,90,0.00,,CLR,0.00,VWS V14.01,2013-01-24 03:22:00,
2013-01-23 22:27:00,7.3,5.0,30.20,West,263,0.0,0.0,90,0.00,,CLR,0.00,VWS V14.01,2013-01-24 03:27:00,
2013-01-23 22:32:00,7.3,5.0,30.20,West,263,0.0,0.0,90,0.00,,CLR,0.00,VWS V14.01,2013-01-24 03:32:00,
2013-01-23 22:37:00,7.5,5.1,30.20,West,263,0.0,0.0,90,0.00,,CLR,0.00,VWS V14.01,2013-01-24 03:37:00,
2013-01-23 22:42:00,7.5,5.1,30.20,West,263,0.0,0.0,90,0.00,,CLR,0.00,VWS V14.01,2013-01-24 03:42:00,
2013-01-23 22:47:00,7.8,5.5,30.20,West,263,0.0,0.0,90,0.00,,CLR,0.00,VWS V14.01,2013-01-24 03:47:00,
2013-01-23 22:52:00,7.7,5.4,30.20,West,263,0.0,0.0,90,0.00,,CLR,0.00,VWS V14.01,2013-01-24 03:52:00,
2013-01-23 22:57:00,7.9,5.6,30.20,West,263,0.0,0.0,90,0.00,,CLR,0.00,VWS V14.01,2013-01-24 03:57:00,
2013-01-23 23:02:00,7.9,5.6,30.20,West,263,0.0,0.0,90,0.00,,OVC110,0.00,VWS V14.01,2013-01-24 04:02:00,
2013-01-23 23:07:00,8.0,5.7,30.20,West,263,0.0,0.0,90,0.00,,OVC110,0.00,VWS V14.01,2013-01-24 04:07:00,
2013-01-23 23:12:00,8.2,5.9,30.20,West,263,0.0,0.0,90,0.00,,OVC110,0.00,VWS V14.01,2013-01-24 04:12:00,
2013-01-23 23:17:00,8.4,6.2,30.20,West,263,0.0,0.0,90,0.00,,OVC110,0.00,VWS V14.01,2013-01-24 04:17:00,
2013-01-23 23:22:00,8.4,6.2,30.20,West,263,0.0,0.0,91,0.00,,OVC110,0.00,VWS V14.01,2013-01-24 04:22:00,
2013-01-23 23:27:00,8.5,6.3,30.20,West,263,0.0,0.0,91,0.00,,OVC110,0.00,VWS V14.01,2013-01-24 04:27:00,
2013-01-23 23:32:00,8.4,6.2,30.20,West,263,0.0,0.0,91,0.00,,OVC110,0.00,VWS V14.01,2013-01-24 04:32:00,
2013-01-23 23:37:00,8.3,6.1,30.19,West,263,0.0,0.0,91,0.00,,OVC110,0.00,VWS V14.01,2013-01-24 04:37:00,
2013-01-23 23:42:00,8.4,6.2,30.19,West,263,0.0,0.0,90,0.00,,OVC110,0.00,VWS V14.01,2013-01-24 04:42:00,
2013-01-23 23:47:00,8.0,5.8,30.19,West,263,0.0,0.0,90,0.00,,OVC110,0.00,VWS V14.01,2013-01-24 04:47:00,
2013-01-23 23:52:00,8.3,6.1,30.19,West,263,0.0,0.0,90,0.00,,OVC110,0.00,VWS V14.01,2013-01-24 04:52:00,
2013-01-23 23:57:00,8.1,5.9,30.19,West,263,0.0,0.0,90,0.00,,OVC110,0.00,VWS V14.01,2013-01-24 04:57:00,